Language: 


Des rapports , des résumés tant et plus, au choix de chacun....


Données statistiques de la station
Quotidien Rapport Février 20, 2017 Unités:  Métrique    Anglais   les deux
« Précédent Jour
Suivant Jour »
Quotidien Hebdomadaire Mensuel Annuel Actuel
  Haut: Bas: Moyen:
Température: 12.2 °C 8.4 °C 10 °C
Pt de rosée: 11.4 °C 7.7 °C 9.5 °C
Humidité: 98 % 95 % 97 %
Vitesse du vent: 37.8 km/h 5.5 km/h 16.5 km/h
Rafales: 38.1 km/h - -
Vent:- - WSW
Pression: 1021.9 hPa 1016.1 hPa -
Précipitation: 0.0 mm    
Historical Graphs
 
 
Données statistiques pour Février 20, 2017
Heure Température Point de rosée Pression Vent Vitesse du vent Refales Humidité Pluie (taux horaire)
00:03 8.4 °C 7.7 °C 1020.9 hPa WSW 8.7 km/h 12.2 km/h 95 % 0.0 mm
00:08 8.4 °C 7.7 °C 1021.9 hPa WSW 9.3 km/h 12.2 km/h 95 % 0.0 mm
00:13 8.4 °C 7.7 °C 1021.9 hPa SSW 5.5 km/h 11.9 km/h 95 % 0.0 mm
00:18 8.4 °C 7.7 °C 1021.9 hPa SW 6.9 km/h 10.5 km/h 95 % 0.0 mm
00:23 8.4 °C 7.7 °C 1020.9 hPa SW 9.7 km/h 9.7 km/h 95 % 0.0 mm
00:28 8.5 °C 7.9 °C 1020.9 hPa WSW 7.9 km/h 10.5 km/h 96 % 0.0 mm
00:33 8.5 °C 7.9 °C 1020.9 hPa WSW 6.1 km/h 11.6 km/h 96 % 0.0 mm
00:38 8.5 °C 7.9 °C 1020.9 hPa WSW 8.7 km/h 11.6 km/h 96 % 0.0 mm
00:43 8.5 °C 7.9 °C 1020.9 hPa SSW 7.9 km/h 10.5 km/h 96 % 0.0 mm
00:48 8.5 °C 7.9 °C 1020.9 hPa SW 9.0 km/h 12.6 km/h 96 % 0.0 mm
00:53 8.5 °C 7.9 °C 1020.9 hPa WSW 8.7 km/h 12.6 km/h 96 % 0.0 mm
00:58 8.6 °C 8.0 °C 1020.9 hPa WSW 9.3 km/h 11.9 km/h 96 % 0.0 mm
01:03 8.6 °C 8.0 °C 1020.9 hPa SSW 7.9 km/h 9.7 km/h 96 % 0.0 mm
01:08 8.6 °C 8.0 °C 1019.9 hPa SW 9.0 km/h 10.5 km/h 96 % 0.0 mm
01:13 8.6 °C 8.0 °C 1019.9 hPa WSW 7.2 km/h 11.1 km/h 96 % 0.0 mm
01:18 8.7 °C 8.1 °C 1019.9 hPa SW 10.5 km/h 11.6 km/h 96 % 0.0 mm
01:23 8.7 °C 8.1 °C 1019.9 hPa SW 9.3 km/h 11.9 km/h 96 % 0.0 mm
01:28 8.7 °C 8.1 °C 1019.9 hPa WSW 7.2 km/h 11.9 km/h 96 % 0.0 mm
01:33 8.7 °C 8.1 °C 1019.9 hPa WSW 7.6 km/h 11.1 km/h 96 % 0.0 mm
01:38 8.7 °C 8.1 °C 1019.9 hPa WSW 6.9 km/h 10.5 km/h 96 % 0.0 mm
01:43 8.7 °C 8.1 °C 1019.9 hPa WSW 7.6 km/h 10.1 km/h 96 % 0.0 mm
01:48 8.7 °C 8.1 °C 1019.9 hPa WSW 7.9 km/h 10.1 km/h 96 % 0.0 mm
01:53 8.7 °C 8.1 °C 1020.9 hPa SW 9.0 km/h 11.9 km/h 96 % 0.0 mm
01:58 8.7 °C 8.1 °C 1020.9 hPa WSW 7.9 km/h 11.9 km/h 96 % 0.0 mm
02:03 8.6 °C 8.0 °C 1020.9 hPa SW 10.1 km/h 11.1 km/h 96 % 0.0 mm
02:08 8.6 °C 8.0 °C 1020.9 hPa SW 9.3 km/h 15.1 km/h 96 % 0.0 mm
02:13 8.6 °C 8.0 °C 1020.9 hPa WSW 12.2 km/h 15.1 km/h 96 % 0.0 mm
02:18 8.6 °C 8.0 °C 1020.9 hPa WSW 10.1 km/h 12.2 km/h 96 % 0.0 mm
02:23 8.6 °C 8.0 °C 1020.9 hPa WSW 7.9 km/h 10.5 km/h 96 % 0.0 mm
02:28 8.6 °C 8.2 °C 1020.9 hPa SW 10.1 km/h 12.2 km/h 97 % 0.0 mm
02:33 8.6 °C 8.2 °C 1020.9 hPa WSW 7.6 km/h 12.2 km/h 97 % 0.0 mm
02:39 8.6 °C 8.2 °C 1020.9 hPa SSW 9.0 km/h 11.6 km/h 97 % 0.0 mm
02:44 8.6 °C 8.2 °C 1020.9 hPa SW 8.7 km/h 11.6 km/h 97 % 0.0 mm
02:49 8.6 °C 8.2 °C 1020.9 hPa SW 8.7 km/h 10.5 km/h 97 % 0.0 mm
02:54 8.7 °C 8.3 °C 1019.9 hPa SSW 7.9 km/h 11.6 km/h 97 % 0.0 mm
02:59 8.7 °C 8.3 °C 1019.9 hPa WSW 6.9 km/h 11.6 km/h 97 % 0.0 mm
03:04 8.7 °C 8.3 °C 1019.9 hPa WSW 9.7 km/h 11.6 km/h 97 % 0.0 mm
03:09 8.7 °C 8.3 °C 1019.9 hPa WSW 9.3 km/h 13.7 km/h 97 % 0.0 mm
03:14 8.7 °C 8.3 °C 1019.9 hPa WSW 10.1 km/h 14.0 km/h 97 % 0.0 mm
03:19 8.8 °C 8.4 °C 1019.9 hPa WSW 9.3 km/h 14.0 km/h 97 % 0.0 mm
03:24 8.8 °C 8.4 °C 1019.9 hPa SW 9.0 km/h 13.7 km/h 97 % 0.0 mm
03:29 8.8 °C 8.4 °C 1019.9 hPa SW 14.0 km/h 14.0 km/h 97 % 0.0 mm
03:34 8.8 °C 8.4 °C 1019.9 hPa WSW 10.5 km/h 14.0 km/h 97 % 0.0 mm
03:39 8.8 °C 8.4 °C 1018.8 hPa WSW 14.0 km/h 14.0 km/h 97 % 0.0 mm
03:44 8.8 °C 8.4 °C 1018.8 hPa WSW 12.2 km/h 15.8 km/h 97 % 0.0 mm
03:49 8.8 °C 8.4 °C 1018.8 hPa WSW 11.9 km/h 16.3 km/h 97 % 0.0 mm
03:54 8.8 °C 8.4 °C 1018.8 hPa WSW 11.6 km/h 19.8 km/h 97 % 0.0 mm
03:59 8.8 °C 8.4 °C 1018.8 hPa WSW 12.6 km/h 19.8 km/h 97 % 0.0 mm
04:04 8.8 °C 8.4 °C 1018.8 hPa WSW 18.3 km/h 20.6 km/h 97 % 0.0 mm
04:09 8.8 °C 8.4 °C 1018.8 hPa WSW 18.0 km/h 20.6 km/h 97 % 0.0 mm
04:14 8.8 °C 8.4 °C 1018.8 hPa West 12.6 km/h 19.5 km/h 97 % 0.0 mm
04:19 8.8 °C 8.4 °C 1018.8 hPa WSW 16.9 km/h 17.7 km/h 97 % 0.0 mm
04:24 8.8 °C 8.4 °C 1018.8 hPa West 11.9 km/h 19.8 km/h 97 % 0.0 mm
04:29 8.7 °C 8.4 °C 1018.8 hPa WSW 11.9 km/h 19.8 km/h 98 % 0.0 mm
04:34 8.7 °C 8.4 °C 1018.8 hPa WSW 13.7 km/h 17.7 km/h 98 % 0.0 mm
04:39 8.7 °C 8.4 °C 1018.8 hPa WSW 16.3 km/h 17.7 km/h 98 % 0.0 mm
04:44 8.7 °C 8.4 °C 1018.8 hPa SW 12.6 km/h 16.3 km/h 98 % 0.0 mm
04:49 8.7 °C 8.4 °C 1018.8 hPa WSW 10.1 km/h 15.8 km/h 98 % 0.0 mm
04:54 8.7 °C 8.4 °C 1018.8 hPa WSW 11.6 km/h 15.4 km/h 98 % 0.0 mm
04:59 8.6 °C 8.3 °C 1018.8 hPa SW 12.2 km/h 15.8 km/h 98 % 0.0 mm
05:04 8.7 °C 8.4 °C 1018.8 hPa WSW 13.7 km/h 19.5 km/h 98 % 0.0 mm
05:09 8.7 °C 8.4 °C 1018.8 hPa WSW 13.7 km/h 20.1 km/h 98 % 0.0 mm
05:14 8.6 °C 8.3 °C 1018.8 hPa WSW 9.0 km/h 20.1 km/h 98 % 0.0 mm
05:19 8.6 °C 8.3 °C 1018.8 hPa WSW 9.7 km/h 15.4 km/h 98 % 0.0 mm
05:24 8.6 °C 8.3 °C 1018.8 hPa WSW 12.2 km/h 15.1 km/h 98 % 0.0 mm
05:29 8.6 °C 8.3 °C 1018.8 hPa SW 12.6 km/h 15.1 km/h 98 % 0.0 mm
05:34 8.6 °C 8.3 °C 1018.8 hPa WSW 12.2 km/h 14.8 km/h 98 % 0.0 mm
05:39 8.6 °C 8.3 °C 1018.8 hPa WSW 16.9 km/h 16.9 km/h 98 % 0.0 mm
05:44 8.6 °C 8.3 °C 1018.8 hPa WSW 13.0 km/h 16.9 km/h 98 % 0.0 mm
05:49 8.6 °C 8.3 °C 1018.8 hPa WSW 12.2 km/h 16.9 km/h 98 % 0.0 mm
05:54 8.6 °C 8.3 °C 1018.8 hPa SSW 12.6 km/h 19.1 km/h 98 % 0.0 mm
05:59 8.7 °C 8.4 °C 1018.8 hPa SW 14.0 km/h 19.1 km/h 98 % 0.0 mm
06:04 8.7 °C 8.4 °C 1018.8 hPa WSW 9.3 km/h 16.3 km/h 98 % 0.0 mm
06:09 8.7 °C 8.4 °C 1018.8 hPa WSW 10.1 km/h 16.9 km/h 98 % 0.0 mm
06:12 8.7 °C 8.4 °C 1018.8 hPa WSW 12.2 km/h 16.9 km/h 98 % 0.0 mm
06:17 8.7 °C 8.4 °C 1018.8 hPa WSW 12.6 km/h 13.7 km/h 98 % 0.0 mm
06:22 8.7 °C 8.4 °C 1018.8 hPa WSW 7.9 km/h 13.7 km/h 98 % 0.0 mm
06:27 8.6 °C 8.3 °C 1018.8 hPa WSW 11.6 km/h 13.7 km/h 98 % 0.0 mm
06:32 8.6 °C 8.3 °C 1018.8 hPa SSW 13.0 km/h 13.0 km/h 98 % 0.0 mm
06:37 8.6 °C 8.3 °C 1018.8 hPa SW 9.0 km/h 13.0 km/h 98 % 0.0 mm
06:42 8.6 °C 8.3 °C 1018.8 hPa SSW 12.6 km/h 14.0 km/h 98 % 0.0 mm
06:47 8.7 °C 8.4 °C 1018.8 hPa SW 10.5 km/h 14.0 km/h 98 % 0.0 mm
06:52 8.7 °C 8.4 °C 1018.8 hPa SSW 9.7 km/h 13.0 km/h 98 % 0.0 mm
06:57 8.7 °C 8.4 °C 1018.8 hPa SSW 7.9 km/h 12.2 km/h 98 % 0.0 mm
06:59 8.7 °C 8.4 °C 1018.8 hPa WSW 8.7 km/h 11.9 km/h 98 % 0.0 mm
07:04 8.7 °C 8.4 °C 1018.8 hPa SW 9.3 km/h 13.0 km/h 98 % 0.0 mm
07:09 8.7 °C 8.4 °C 1018.8 hPa SW 9.3 km/h 13.0 km/h 98 % 0.0 mm
07:14 8.8 °C 8.5 °C 1018.8 hPa SW 7.6 km/h 10.5 km/h 98 % 0.0 mm
07:19 8.8 °C 8.5 °C 1018.8 hPa WSW 7.9 km/h 11.6 km/h 98 % 0.0 mm
07:24 8.8 °C 8.5 °C 1018.2 hPa WSW 7.2 km/h 15.4 km/h 98 % 0.0 mm
07:29 8.8 °C 8.5 °C 1018.2 hPa SW 11.6 km/h 15.8 km/h 98 % 0.0 mm
07:34 8.8 °C 8.5 °C 1018.2 hPa SW 7.9 km/h 15.8 km/h 98 % 0.0 mm
07:39 8.8 °C 8.5 °C 1018.8 hPa WSW 13.0 km/h 14.3 km/h 98 % 0.0 mm
07:44 8.8 °C 8.5 °C 1018.8 hPa WSW 12.2 km/h 14.3 km/h 98 % 0.0 mm
07:49 8.8 °C 8.5 °C 1018.8 hPa WSW 12.6 km/h 17.2 km/h 98 % 0.0 mm
07:54 8.8 °C 8.5 °C 1018.2 hPa SSW 10.5 km/h 17.2 km/h 98 % 0.0 mm
07:59 8.8 °C 8.5 °C 1018.2 hPa WSW 13.0 km/h 16.6 km/h 98 % 0.0 mm
08:04 8.9 °C 8.6 °C 1018.2 hPa WSW 12.6 km/h 16.6 km/h 98 % 0.0 mm
08:09 8.9 °C 8.6 °C 1018.8 hPa WSW 13.7 km/h 16.9 km/h 98 % 0.0 mm
08:14 8.9 °C 8.6 °C 1018.8 hPa WSW 10.5 km/h 19.8 km/h 98 % 0.0 mm
08:19 9.0 °C 8.7 °C 1018.8 hPa WSW 16.3 km/h 19.8 km/h 98 % 0.0 mm
08:24 9.0 °C 8.7 °C 1018.2 hPa WSW 15.8 km/h 20.6 km/h 98 % 0.0 mm
08:29 9.1 °C 8.8 °C 1018.2 hPa WSW 16.9 km/h 20.6 km/h 98 % 0.0 mm
08:34 9.1 °C 8.8 °C 1018.2 hPa WSW 11.6 km/h 18.0 km/h 98 % 0.0 mm
08:39 9.1 °C 8.8 °C 1018.8 hPa WSW 17.2 km/h 19.8 km/h 98 % 0.0 mm
08:44 9.1 °C 8.8 °C 1018.8 hPa WSW 11.9 km/h 20.6 km/h 98 % 0.0 mm
08:49 9.1 °C 8.8 °C 1018.8 hPa WSW 17.2 km/h 20.6 km/h 98 % 0.0 mm
08:54 9.2 °C 8.9 °C 1018.8 hPa WSW 16.6 km/h 20.6 km/h 98 % 0.0 mm
08:59 9.2 °C 8.9 °C 1018.8 hPa WSW 15.8 km/h 21.2 km/h 98 % 0.0 mm
09:04 9.3 °C 9.0 °C 1018.8 hPa WSW 15.4 km/h 21.6 km/h 98 % 0.0 mm
09:09 9.3 °C 9.0 °C 1018.8 hPa WSW 13.0 km/h 21.6 km/h 98 % 0.0 mm
09:14 9.3 °C 9.0 °C 1018.8 hPa WSW 15.4 km/h 20.9 km/h 98 % 0.0 mm
09:19 9.4 °C 9.1 °C 1018.8 hPa WSW 12.6 km/h 20.9 km/h 98 % 0.0 mm
09:24 9.5 °C 9.2 °C 1018.8 hPa WSW 14.0 km/h 20.9 km/h 98 % 0.0 mm
09:29 9.5 °C 9.2 °C 1018.8 hPa WSW 12.2 km/h 20.9 km/h 98 % 0.0 mm
09:34 9.5 °C 9.2 °C 1018.8 hPa WSW 19.5 km/h 19.8 km/h 98 % 0.0 mm
09:39 9.6 °C 9.3 °C 1018.8 hPa WSW 13.0 km/h 21.9 km/h 98 % 0.0 mm
09:44 9.6 °C 9.3 °C 1018.8 hPa West 14.3 km/h 23.3 km/h 98 % 0.0 mm
09:49 9.7 °C 9.4 °C 1018.8 hPa West 19.8 km/h 23.3 km/h 98 % 0.0 mm
09:54 9.7 °C 9.4 °C 1018.8 hPa WSW 21.2 km/h 21.2 km/h 98 % 0.0 mm
09:59 9.8 °C 9.5 °C 1018.8 hPa WSW 13.0 km/h 24.5 km/h 98 % 0.0 mm
10:04 9.8 °C 9.5 °C 1018.8 hPa WSW 17.2 km/h 24.5 km/h 98 % 0.0 mm
10:09 9.9 °C 9.6 °C 1018.2 hPa WSW 13.0 km/h 21.9 km/h 98 % 0.0 mm
10:14 9.9 °C 9.6 °C 1018.2 hPa WSW 20.6 km/h 21.9 km/h 98 % 0.0 mm
10:19 9.9 °C 9.6 °C 1018.2 hPa WSW 13.0 km/h 21.6 km/h 98 % 0.0 mm
10:24 10.0 °C 9.7 °C 1018.2 hPa WSW 13.7 km/h 23.8 km/h 98 % 0.0 mm
10:29 10.1 °C 9.8 °C 1018.2 hPa WSW 24.8 km/h 31.4 km/h 98 % 0.0 mm
10:34 10.1 °C 9.8 °C 1018.2 hPa WSW 17.7 km/h 31.4 km/h 98 % 0.0 mm
10:39 10.1 °C 9.8 °C 1018.2 hPa WSW 23.0 km/h 28.5 km/h 98 % 0.0 mm
10:44 10.1 °C 9.8 °C 1018.2 hPa West 21.2 km/h 25.3 km/h 98 % 0.0 mm
10:49 10.1 °C 9.8 °C 1018.2 hPa WSW 16.6 km/h 25.3 km/h 98 % 0.0 mm
10:54 10.2 °C 9.9 °C 1018.8 hPa WSW 23.8 km/h 27.4 km/h 98 % 0.0 mm
10:59 10.2 °C 9.9 °C 1018.8 hPa WSW 23.0 km/h 29.9 km/h 98 % 0.0 mm
11:04 10.2 °C 9.9 °C 1018.8 hPa West 15.8 km/h 29.9 km/h 98 % 0.0 mm
11:09 10.2 °C 9.9 °C 1018.8 hPa West 14.0 km/h 29.9 km/h 98 % 0.0 mm
11:14 10.2 °C 9.9 °C 1018.8 hPa West 21.2 km/h 29.9 km/h 98 % 0.0 mm
11:19 10.2 °C 9.7 °C 1018.8 hPa WSW 23.3 km/h 24.5 km/h 97 % 0.0 mm
11:24 10.2 °C 9.7 °C 1018.8 hPa West 13.0 km/h 24.8 km/h 97 % 0.0 mm
11:29 10.3 °C 9.8 °C 1018.8 hPa West 16.9 km/h 24.8 km/h 97 % 0.0 mm
11:34 10.3 °C 9.8 °C 1018.8 hPa WSW 16.3 km/h 33.1 km/h 97 % 0.0 mm
11:39 10.3 °C 9.8 °C 1018.8 hPa WSW 17.2 km/h 33.1 km/h 97 % 0.0 mm
11:44 10.4 °C 9.9 °C 1018.8 hPa WSW 17.2 km/h 20.6 km/h 97 % 0.0 mm
11:49 10.4 °C 9.9 °C 1018.8 hPa West 20.6 km/h 22.7 km/h 97 % 0.0 mm
11:54 10.5 °C 10.1 °C 1018.8 hPa WSW 16.3 km/h 23.3 km/h 97 % 0.0 mm
11:59 10.6 °C 10.1 °C 1018.8 hPa West 19.1 km/h 23.3 km/h 97 % 0.0 mm
12:04 10.6 °C 10.1 °C 1018.8 hPa West 17.2 km/h 26.2 km/h 97 % 0.0 mm
12:09 10.6 °C 10.1 °C 1018.8 hPa WSW 23.8 km/h 26.2 km/h 97 % 0.0 mm
12:14 10.7 °C 10.2 °C 1018.8 hPa West 16.6 km/h 28.0 km/h 97 % 0.0 mm
12:19 10.8 °C 10.3 °C 1018.8 hPa WSW 17.2 km/h 28.5 km/h 97 % 0.0 mm
12:24 10.8 °C 10.3 °C 1018.2 hPa WSW 20.6 km/h 28.5 km/h 97 % 0.0 mm
12:29 10.9 °C 10.4 °C 1018.2 hPa West 12.6 km/h 24.8 km/h 97 % 0.0 mm
12:34 11.0 °C 10.5 °C 1018.2 hPa West 25.6 km/h 25.6 km/h 97 % 0.0 mm
12:39 11.0 °C 10.5 °C 1018.2 hPa West 21.2 km/h 25.6 km/h 97 % 0.0 mm
12:44 10.9 °C 10.4 °C 1018.2 hPa WSW 28.0 km/h 30.9 km/h 97 % 0.0 mm
12:49 10.9 °C 10.4 °C 1018.2 hPa West 22.4 km/h 30.9 km/h 97 % 0.0 mm
12:54 10.9 °C 10.4 °C 1018.2 hPa West 20.1 km/h 30.9 km/h 97 % 0.0 mm
12:59 10.9 °C 10.3 °C 1018.2 hPa West 20.1 km/h 30.9 km/h 96 % 0.0 mm
13:04 10.9 °C 10.3 °C 1018.2 hPa WSW 16.9 km/h 28.5 km/h 96 % 0.0 mm
13:09 10.9 °C 10.3 °C 1018.2 hPa WSW 24.5 km/h 28.5 km/h 96 % 0.0 mm
13:14 10.9 °C 10.3 °C 1018.2 hPa WSW 20.6 km/h 28.5 km/h 96 % 0.0 mm
13:19 11.0 °C 10.4 °C 1018.2 hPa WSW 20.6 km/h 26.7 km/h 96 % 0.0 mm
13:24 11.1 °C 10.4 °C 1018.2 hPa West 24.5 km/h 28.5 km/h 96 % 0.0 mm
13:29 11.1 °C 10.4 °C 1018.2 hPa WSW 29.9 km/h 29.9 km/h 96 % 0.0 mm
13:34 11.2 °C 10.6 °C 1018.2 hPa West 23.8 km/h 29.9 km/h 96 % 0.0 mm
13:39 11.2 °C 10.6 °C 1016.8 hPa WSW 24.5 km/h 28.5 km/h 96 % 0.0 mm
13:44 11.3 °C 10.7 °C 1016.8 hPa West 23.8 km/h 28.5 km/h 96 % 0.0 mm
13:49 11.3 °C 10.7 °C 1016.8 hPa West 21.9 km/h 30.6 km/h 96 % 0.0 mm
13:54 11.3 °C 10.7 °C 1016.1 hPa WSW 20.1 km/h 30.6 km/h 96 % 0.0 mm
13:59 11.4 °C 10.8 °C 1016.1 hPa WSW 20.6 km/h 30.2 km/h 96 % 0.0 mm
14:04 11.4 °C 10.8 °C 1016.1 hPa WSW 24.5 km/h 28.5 km/h 96 % 0.0 mm
14:09 11.4 °C 10.8 °C 1016.8 hPa West 16.6 km/h 28.0 km/h 96 % 0.0 mm
14:14 11.6 °C 10.9 °C 1016.8 hPa WSW 16.3 km/h 28.0 km/h 96 % 0.0 mm
14:19 11.7 °C 11.1 °C 1016.8 hPa WSW 20.1 km/h 28.5 km/h 96 % 0.0 mm
14:24 11.8 °C 11.0 °C 1016.8 hPa WSW 23.0 km/h 29.9 km/h 95 % 0.0 mm
14:29 11.8 °C 11.0 °C 1016.8 hPa WSW 18.3 km/h 29.9 km/h 95 % 0.0 mm
14:34 11.8 °C 11.0 °C 1016.8 hPa SSW 29.9 km/h 31.7 km/h 95 % 0.0 mm
14:39 11.8 °C 11.0 °C 1016.8 hPa WSW 28.5 km/h 31.7 km/h 95 % 0.0 mm
14:44 11.8 °C 11.0 °C 1016.8 hPa WSW 25.9 km/h 31.7 km/h 95 % 0.0 mm
14:49 11.8 °C 11.1 °C 1016.8 hPa SW 15.1 km/h 28.5 km/h 95 % 0.0 mm
14:54 11.8 °C 11.1 °C 1016.8 hPa WSW 18.0 km/h 25.9 km/h 95 % 0.0 mm
15:00 11.8 °C 11.1 °C 1016.8 hPa WSW 20.9 km/h 24.8 km/h 95 % 0.0 mm
15:05 11.8 °C 11.1 °C 1016.8 hPa West 27.4 km/h 32.0 km/h 95 % 0.0 mm
15:10 11.8 °C 11.1 °C 1016.8 hPa WSW 19.8 km/h 32.0 km/h 95 % 0.0 mm
15:15 11.8 °C 11.1 °C 1016.8 hPa WSW 21.2 km/h 27.7 km/h 95 % 0.0 mm
15:20 11.8 °C 11.1 °C 1016.8 hPa WSW 13.7 km/h 23.8 km/h 95 % 0.0 mm
15:25 11.9 °C 11.2 °C 1016.8 hPa WSW 15.4 km/h 21.2 km/h 95 % 0.0 mm
15:30 12.1 °C 11.3 °C 1016.8 hPa WSW 17.2 km/h 24.5 km/h 95 % 0.0 mm
15:35 12.2 °C 11.4 °C 1016.8 hPa West 13.0 km/h 24.8 km/h 95 % 0.0 mm
15:40 12.2 °C 11.4 °C 1016.8 hPa WSW 21.2 km/h 24.8 km/h 95 % 0.0 mm
15:45 12.2 °C 11.4 °C 1016.8 hPa West 17.7 km/h 27.4 km/h 95 % 0.0 mm
15:50 12.2 °C 11.4 °C 1016.8 hPa WSW 23.3 km/h 27.4 km/h 95 % 0.0 mm
15:55 12.1 °C 11.3 °C 1016.8 hPa West 13.0 km/h 24.8 km/h 95 % 0.0 mm
16:00 11.8 °C 11.1 °C 1016.8 hPa West 16.3 km/h 30.6 km/h 95 % 0.0 mm
16:05 11.8 °C 11.1 °C 1016.8 hPa WSW 16.9 km/h 30.6 km/h 95 % 0.0 mm
16:10 11.8 °C 11.0 °C 1016.8 hPa WSW 20.6 km/h 27.7 km/h 95 % 0.0 mm
16:15 11.8 °C 11.0 °C 1016.8 hPa West 20.6 km/h 28.5 km/h 95 % 0.0 mm
16:20 11.8 °C 11.0 °C 1016.8 hPa WSW 16.3 km/h 28.5 km/h 95 % 0.0 mm
16:25 11.8 °C 11.1 °C 1016.8 hPa WSW 20.6 km/h 25.3 km/h 95 % 0.0 mm
16:30 11.8 °C 11.1 °C 1016.8 hPa West 21.2 km/h 24.8 km/h 95 % 0.0 mm
16:35 11.8 °C 11.1 °C 1016.8 hPa West 24.5 km/h 27.7 km/h 95 % 0.0 mm
16:40 11.8 °C 11.1 °C 1016.8 hPa West 17.7 km/h 27.7 km/h 95 % 0.0 mm
16:45 11.8 °C 11.1 °C 1016.8 hPa WSW 24.5 km/h 26.7 km/h 95 % 0.0 mm
16:50 11.7 °C 11.1 °C 1016.8 hPa West 34.3 km/h 37.0 km/h 96 % 0.0 mm
16:55 11.6 °C 10.8 °C 1016.8 hPa West 28.5 km/h 37.0 km/h 95 % 0.0 mm
17:00 11.4 °C 10.7 °C 1016.8 hPa West 37.8 km/h 37.8 km/h 95 % 0.0 mm
17:05 11.4 °C 10.7 °C 1016.8 hPa WSW 30.6 km/h 38.1 km/h 95 % 0.0 mm
17:10 11.3 °C 10.7 °C 1016.8 hPa West 20.1 km/h 38.1 km/h 96 % 0.0 mm
17:15 11.2 °C 10.6 °C 1016.8 hPa West 21.6 km/h 37.5 km/h 96 % 0.0 mm
17:20 11.2 °C 10.6 °C 1016.8 hPa West 25.9 km/h 29.9 km/h 96 % 0.0 mm
17:25 11.1 °C 10.4 °C 1016.8 hPa West 20.1 km/h 28.5 km/h 96 % 0.0 mm
17:30 11.1 °C 10.4 °C 1016.8 hPa WSW 21.6 km/h 25.9 km/h 96 % 0.0 mm
17:35 11.0 °C 10.4 °C 1016.8 hPa WSW 20.1 km/h 25.9 km/h 96 % 0.0 mm
17:40 11.0 °C 10.4 °C 1016.8 hPa WSW 16.9 km/h 25.9 km/h 96 % 0.0 mm
17:45 11.0 °C 10.4 °C 1016.8 hPa WSW 16.3 km/h 24.8 km/h 96 % 0.0 mm
17:50 11.0 °C 10.4 °C 1016.8 hPa WSW 16.6 km/h 20.9 km/h 96 % 0.0 mm
17:55 11.0 °C 10.4 °C 1016.8 hPa WSW 17.2 km/h 21.9 km/h 96 % 0.0 mm
18:00 10.9 °C 10.3 °C 1016.8 hPa WSW 20.6 km/h 24.8 km/h 96 % 0.0 mm
18:05 10.9 °C 10.3 °C 1016.8 hPa West 28.0 km/h 28.0 km/h 96 % 0.0 mm
18:10 11.0 °C 10.4 °C 1016.8 hPa WSW 23.8 km/h 28.0 km/h 96 % 0.0 mm
18:15 11.0 °C 10.4 °C 1016.8 hPa WSW 17.7 km/h 28.0 km/h 96 % 0.0 mm
18:20 11.0 °C 10.4 °C 1016.8 hPa West 25.3 km/h 28.0 km/h 96 % 0.0 mm
18:25 11.0 °C 10.4 °C 1016.8 hPa WSW 21.2 km/h 29.1 km/h 96 % 0.0 mm
18:30 11.0 °C 10.4 °C 1016.8 hPa West 22.4 km/h 29.1 km/h 96 % 0.0 mm
18:35 11.0 °C 10.4 °C 1016.8 hPa WSW 17.2 km/h 29.9 km/h 96 % 0.0 mm
18:40 10.9 °C 10.3 °C 1016.8 hPa WSW 17.7 km/h 29.9 km/h 96 % 0.0 mm
18:45 10.9 °C 10.3 °C 1016.8 hPa WSW 16.3 km/h 24.5 km/h 96 % 0.0 mm
18:50 10.8 °C 10.2 °C 1016.8 hPa WSW 22.7 km/h 28.5 km/h 96 % 0.0 mm
18:55 10.8 °C 10.2 °C 1016.8 hPa WSW 23.0 km/h 28.5 km/h 96 % 0.0 mm
19:00 10.7 °C 10.1 °C 1016.8 hPa West 23.0 km/h 28.5 km/h 96 % 0.0 mm
19:05 10.7 °C 10.1 °C 1016.8 hPa WSW 20.1 km/h 28.8 km/h 96 % 0.0 mm
19:10 10.7 °C 10.1 °C 1016.8 hPa WSW 23.8 km/h 28.8 km/h 96 % 0.0 mm
19:15 10.6 °C 10.0 °C 1016.8 hPa WSW 24.5 km/h 28.0 km/h 96 % 0.0 mm
19:20 10.5 °C 9.9 °C 1016.8 hPa WSW 23.3 km/h 26.7 km/h 96 % 0.0 mm
19:25 10.5 °C 9.9 °C 1016.8 hPa WSW 29.9 km/h 29.9 km/h 96 % 0.0 mm
19:30 10.5 °C 9.9 °C 1016.8 hPa WSW 20.6 km/h 29.9 km/h 96 % 0.0 mm
19:35 10.4 °C 9.8 °C 1016.8 hPa WSW 17.7 km/h 28.5 km/h 96 % 0.0 mm
19:40 10.4 °C 9.8 °C 1016.8 hPa WSW 20.6 km/h 28.5 km/h 96 % 0.0 mm
19:45 10.5 °C 10.1 °C 1016.8 hPa WSW 24.5 km/h 29.9 km/h 97 % 0.0 mm
19:50 10.5 °C 10.1 °C 1016.8 hPa WSW 17.7 km/h 29.9 km/h 97 % 0.0 mm
19:55 10.4 °C 9.9 °C 1016.1 hPa WSW 19.5 km/h 29.9 km/h 97 % 0.0 mm
20:00 10.4 °C 9.9 °C 1016.1 hPa WSW 20.6 km/h 29.9 km/h 97 % 0.0 mm
20:05 10.4 °C 9.9 °C 1016.1 hPa West 23.8 km/h 30.2 km/h 97 % 0.0 mm
20:10 10.4 °C 9.9 °C 1016.8 hPa WSW 17.2 km/h 30.2 km/h 97 % 0.0 mm
20:15 10.4 °C 9.9 °C 1016.8 hPa West 20.1 km/h 28.5 km/h 97 % 0.0 mm
20:20 10.4 °C 9.9 °C 1016.8 hPa WSW 15.8 km/h 24.8 km/h 97 % 0.0 mm
20:25 10.4 °C 9.9 °C 1018.2 hPa WSW 17.7 km/h 24.8 km/h 97 % 0.0 mm
20:30 10.4 °C 9.9 °C 1018.2 hPa West 20.9 km/h 27.4 km/h 97 % 0.0 mm
20:35 10.5 °C 10.1 °C 1018.2 hPa WSW 18.3 km/h 27.4 km/h 97 % 0.0 mm
20:40 10.5 °C 10.1 °C 1016.1 hPa WSW 20.9 km/h 27.0 km/h 97 % 0.0 mm
20:45 10.5 °C 10.1 °C 1016.1 hPa West 26.7 km/h 26.7 km/h 97 % 0.0 mm
20:50 10.5 °C 10.1 °C 1016.1 hPa West 17.7 km/h 32.0 km/h 97 % 0.0 mm
20:55 10.5 °C 10.1 °C 1016.8 hPa WSW 20.6 km/h 32.0 km/h 97 % 0.0 mm
21:00 10.5 °C 10.1 °C 1016.8 hPa West 17.7 km/h 28.5 km/h 97 % 0.0 mm
21:05 10.5 °C 10.1 °C 1016.8 hPa WSW 31.4 km/h 31.4 km/h 97 % 0.0 mm
21:10 10.5 °C 10.1 °C 1016.1 hPa WSW 20.9 km/h 31.4 km/h 97 % 0.0 mm
21:15 10.5 °C 10.1 °C 1016.1 hPa WSW 24.5 km/h 31.4 km/h 97 % 0.0 mm
21:20 10.5 °C 10.1 °C 1016.1 hPa West 21.9 km/h 24.8 km/h 97 % 0.0 mm
21:25 10.5 °C 10.1 °C 1016.1 hPa WSW 21.2 km/h 28.8 km/h 97 % 0.0 mm
21:30 10.5 °C 10.1 °C 1016.1 hPa WSW 17.7 km/h 28.8 km/h 97 % 0.0 mm
21:35 10.5 °C 10.1 °C 1016.1 hPa West 17.7 km/h 28.5 km/h 97 % 0.0 mm
21:40 10.5 °C 10.1 °C 1016.8 hPa West 23.3 km/h 28.5 km/h 97 % 0.0 mm
21:45 10.5 °C 10.1 °C 1016.8 hPa West 15.4 km/h 24.8 km/h 97 % 0.0 mm
21:50 10.5 °C 10.1 °C 1016.8 hPa SW 14.0 km/h 24.8 km/h 97 % 0.0 mm
21:55 10.5 °C 10.1 °C 1016.8 hPa West 16.3 km/h 29.1 km/h 97 % 0.0 mm
22:00 10.5 °C 10.1 °C 1016.8 hPa West 27.0 km/h 29.1 km/h 97 % 0.0 mm
22:05 10.5 °C 10.1 °C 1016.8 hPa WSW 17.2 km/h 28.0 km/h 97 % 0.0 mm
22:10 10.5 °C 10.1 °C 1016.8 hPa WSW 16.6 km/h 28.5 km/h 97 % 0.0 mm
22:15 10.5 °C 10.1 °C 1016.8 hPa WSW 19.5 km/h 28.5 km/h 97 % 0.0 mm
22:20 10.4 °C 9.9 °C 1016.8 hPa West 15.8 km/h 23.3 km/h 97 % 0.0 mm
22:25 10.4 °C 9.9 °C 1016.8 hPa WSW 16.6 km/h 23.3 km/h 97 % 0.0 mm
22:30 10.4 °C 9.9 °C 1016.8 hPa West 17.2 km/h 24.8 km/h 97 % 0.0 mm
22:35 10.4 °C 9.9 °C 1016.8 hPa West 16.3 km/h 25.6 km/h 97 % 0.0 mm
22:40 10.4 °C 9.9 °C 1016.8 hPa West 20.6 km/h 25.6 km/h 97 % 0.0 mm
22:45 10.4 °C 9.9 °C 1016.8 hPa WSW 20.6 km/h 23.0 km/h 97 % 0.0 mm
22:50 10.3 °C 9.8 °C 1016.8 hPa WSW 20.6 km/h 21.6 km/h 97 % 0.0 mm
22:55 10.3 °C 9.8 °C 1016.1 hPa West 20.9 km/h 24.8 km/h 97 % 0.0 mm
23:00 10.3 °C 9.8 °C 1016.1 hPa West 16.9 km/h 24.8 km/h 97 % 0.0 mm
23:05 10.3 °C 9.8 °C 1016.1 hPa WSW 20.1 km/h 24.5 km/h 97 % 0.0 mm
23:10 10.3 °C 9.8 °C 1016.8 hPa West 9.7 km/h 24.5 km/h 97 % 0.0 mm
23:15 10.4 °C 9.9 °C 1016.8 hPa West 20.1 km/h 24.8 km/h 97 % 0.0 mm
23:20 10.4 °C 9.9 °C 1016.8 hPa West 20.9 km/h 25.3 km/h 97 % 0.0 mm
23:25 10.4 °C 9.9 °C 1016.8 hPa WSW 17.7 km/h 25.3 km/h 97 % 0.0 mm
23:30 10.4 °C 9.9 °C 1016.8 hPa WSW 18.3 km/h 25.3 km/h 97 % 0.0 mm
23:36 10.4 °C 9.9 °C 1016.8 hPa WSW 16.6 km/h 23.8 km/h 97 % 0.0 mm
23:41 10.4 °C 9.9 °C 1016.8 hPa West 17.7 km/h 23.8 km/h 97 % 0.0 mm
23:46 10.4 °C 9.9 °C 1016.8 hPa West 24.8 km/h 24.8 km/h 97 % 0.0 mm
23:51 10.4 °C 9.9 °C 1016.8 hPa WSW 11.9 km/h 24.8 km/h 97 % 0.0 mm
23:56 10.4 °C 9.9 °C 1016.1 hPa West 14.0 km/h 25.9 km/h 97 % 0.0 mm
Le Gheer Warneton
Courtoisie de Weather Underground - 2.25 mb

Mise a jour : 17/12/2017 22:32:12
Généré par Cumulus 1.9.4 (1099)